User: anonymous   Login
Location: Harbor Island
(32.3990°N, 80.4435°W)
Time: 15:59:20
(UTC-05:00)
Language:

Cosmos 1455 - Orbit

View from above orbital plane
View from above orbital plane
View from above satellite
View from above satellite

Ground track
Ground track

The orbit data is extracted from the following two-line orbital elements,

1 14032U 83037A   17347.88212328 +.00000803 +00000-0 +38446-4 0  9997
2 14032 082.5173 269.7985 0018063 020.5467 339.6489 15.17358351888382
Epoch (UTC): 13 December 2017 21:10:15
Eccentricity: 0.0018063
inclination: 82.5173°
perigee height: 501 km
apogee height: 526 km
right ascension of ascending node: 269.7985°
argument of perigee: 20.5467°
revolutions per day: 15.17358351
mean anomaly at epoch: 339.6489°
orbit number at epoch: 88838

The dashed part of the orbit path shows where the satellite is in the earth's shadow,  

DLR